Location: CNYAC Observatory
(43.2150°N, 74.9500°W)
Time: 18:48:07
(UTC-04:00)

Cosmos 1975 Rocket - Visible Passes

Search period start: 25 July 2017 00:00
Search period end: 04 August 2017 00:00
Orbit: 604 x 634 km, 82.5° (Epoch: 25 July)

Date Brightness Start Highest point End Pass type
(mag) Time Alt. Az. Time Alt. Az. Time Alt. Az.
25 Jul 5.3 00:45:06 10° NW 00:47:55 17° W 00:47:56 17° W visible
25 Jul 2.9 23:23:22 10° N 23:27:51 85° E 23:28:04 80° SE visible
26 Jul 5.0 22:04:15 10° NNE 22:06:59 16° ENE 22:08:13 14° E visible
26 Jul 3.6 23:40:50 10° NNW 23:45:10 51° W 23:45:23 50° WSW visible
27 Jul 4.3 22:20:46 10° NNE 22:24:35 27° ENE 22:25:33 25° E visible
27 Jul 4.6 23:58:35 10° NNW 00:02:23 28° W 00:02:42 28° W visible
28 Jul 3.4 22:37:44 10° N 22:42:04 48° ENE 22:42:53 43° ESE visible
29 Jul 5.3 00:16:49 10° NW 00:19:31 16° W 00:20:02 16° W visible
29 Jul 3.0 22:54:58 10° N 22:59:29 90° E 23:00:14 62° S visible
30 Jul 4.9 21:35:45 10° NNE 21:38:38 17° ENE 21:40:27 13° E visible
30 Jul 3.7 23:12:28 10° NNW 23:16:47 48° W 23:17:36 43° SW visible
31 Jul 4.2 21:52:19 10° NNE 21:56:13 28° ENE 21:57:50 23° ESE visible
31 Jul 4.7 23:30:15 10° NNW 23:33:59 27° W 23:34:59 24° WSW visible
01 Aug 3.4 22:09:20 10° N 22:13:43 51° ENE 22:15:13 35° SE visible
01 Aug 5.5 23:48:34 10° NW 23:51:07 15° W 23:52:23 14° WSW visible
02 Aug 3.0 22:26:36 10° N 22:31:07 86° W 22:32:39 41° S visible
03 Aug 4.8 21:07:16 10° NNE 21:10:16 17° ENE 21:12:55 11° ESE visible
03 Aug 3.9 22:44:06 10° NNW 22:48:25 46° W 22:50:05 31° SW visible
